[[{"header":{"parameterUnit":"m.s-1","parameterCategory":1,"la1":30.2992,"la2":30.254,"lo1":-89.0895,"lo2":-89.0443,"dy":0.0025,"dx":0.0025,"nx":19,"ny":19,"refTime":"2026-03-07T09:00:00:Z","depth":0,"parameterNumber":2,"parameterNumberName":"U-component_of_WINDS"},"data":[0,0,0,-3.6927,-3.6928,-3.7001,-3.7001,-3.7099,-3.71,0,0,0,0,0,0,0,0,0,0,0,-3.6909,-3.691,-3.6927,-3.6929,-3.7001,-3.7001,-3.7099,-3.71,0,0,0,0,0,0,0,0,0,0,0,-3.6909,-3.691,-3.6911,-3.6929,-3.7001,-3.7001,-3.7099,-3.7042,0,0,0,0,0,0,0,0,0,0,-3.6971,-3.6959,-3.691,-3.6911,-3.6929,-3.7001,-3.7001,-3.7039,-3.7046,-3.7069,0,-3.7092,0,-3.7098,-3.7107,-3.7108,0,0,0,-3.6925,-3.6954,-3.697,-3.6911,-3.693,-3.7001,-3.6967,-3.7043,-3.705,-3.7078,-3.7093,-3.7097,-3.7099,-3.7108,-3.7108,-3.7256,-3.7257,0,0,-3.6921,-3.6924,-3.6965,-3.6974,-3.6964,-3.6965,-3.697,-3.7047,-3.7064,-3.7093,-3.7099,-3.7101,-3.7109,-3.7109,-3.7256,-3.7257,0,0,0,-3.6912,-3.6922,-3.6936,-3.6971,-3.6983,-3.6967,-3.6972,-3.706,-3.7065,-3.71,-3.7102,-3.7109,-3.711,-3.7255,-3.7256,-3.7299,0,0,0,-3.6909,-3.6916,-3.6934,-3.6937,-3.6982,-3.7023,-3.6984,-3.7059,-3.7068,-3.7102,-3.7109,-3.7111,-3.7254,-3.7255,-3.7296,-3.7318,0,0,0,-3.6903,-3.6915,-3.6927,-3.6937,-3.6968,-3.7021,-3.703,-3.7061,-3.707,-3.7108,-3.7112,-3.7253,-3.7255,-3.7293,-3.7314,-3.7357,0,0,0,-3.6897,-3.6965,-3.6928,-3.7005,-3.6967,-3.7049,-3.703,-3.709,-3.7128,-3.711,-3.7254,-3.7256,-3.7292,-3.7311,-3.7354,-3.7392,-3.7409,0,0,-3.6984,-3.6976,-3.7021,-3.699,-3.7078,-3.7037,-3.7132,-3.7164,-3.7165,-3.7226,-3.7229,-3.7297,-3.7313,-3.7356,-3.7507,-3.752,0,0,0,-3.7049,-3.7082,-3.7105,-3.7141,-3.7168,-3.7192,-3.721,-3.7222,-3.7273,-3.7197,-3.7326,-3.7335,-3.736,-3.7378,-3.7389,-3.741,-3.7265,-3.7265,-3.7265,-3.7175,-3.7173,-3.7247,-3.7255,-3.7291,-3.7309,-3.7338,-3.7357,-3.7344,-3.7375,-3.7391,-3.7483,-3.7504,-3.7513,-3.7534,-3.7414,-3.7414,-3.7414,-3.7414,-3.73,-3.7344,-3.7328,-3.7393,-3.7392,-3.7447,-3.7467,-3.7457,-3.7507,-3.747,-3.7492,-3.7449,-3.7527,-3.7546,-3.7418,-3.7417,-3.7417,-3.7416,-3.7416,-3.738,-3.7401,-3.7415,-3.7468,-3.751,-3.7516,-3.7565,-3.7562,-3.756,-3.7581,-3.7598,-3.7597,-3.7594,-3.759,-3.7591,-3.7591,-3.7591,-3.7591,-3.7592,-3.7455,-3.747,-3.7512,-3.7548,-3.7571,-3.7601,-3.7622,-3.7644,-3.7669,-3.7662,-3.7663,-3.7646,-3.7537,-3.7508,-3.7596,-3.7596,-3.7595,-3.7595,-3.7594,-3.7577,-3.755,-3.7614,-3.7638,-3.7679,-3.772,-3.7717,-3.7764,-3.7783,-3.7807,-3.7787,-3.7708,-3.7698,-3.7689,-3.7664,-3.7789,-3.7789,-3.7789,-3.7789,-3.7642,-3.7638,-3.7703,-3.7741,-3.7778,-3.7782,-3.7855,-3.7872,-3.7885,-3.7896,-3.7879,-3.7848,-3.7839,-3.7834,-3.7822,-3.7799,-3.7954,-3.7955,-3.7955,-3.7716,-3.7716,-3.7777,-3.7791,-3.7824,-3.7851,-3.7919,-3.7963,-3.7972,-3.7961,-3.7905,-3.7898,-3.7847,-3.7831,-3.7815,-3.7796,-3.7754,0,0]},{"header":{"parameterUnit":"m.s-1","parameterCategory":1,"la1":30.2992,"la2":30.254,"lo1":-89.0895,"lo2":-89.0443,"dy":0.0025,"dx":0.0025,"nx":19,"ny":19,"refTime":"2026-03-07T09:00:00:Z","depth":0,"parameterNumber":3,"parameterNumberName":"V-component_of_WINDS"},"data":[0,0,0,2.2482,2.2484,2.2568,2.2568,2.2667,2.2668,0,0,0,0,0,0,0,0,0,0,0,2.2451,2.2451,2.2482,2.2484,2.2568,2.2568,2.2667,2.2668,0,0,0,0,0,0,0,0,0,0,0,2.2451,2.2451,2.2452,2.2484,2.2568,2.2568,2.2667,2.2606,0,0,0,0,0,0,0,0,0,0,2.2526,2.2491,2.2451,2.2452,2.2484,2.2567,2.2568,2.2604,2.261,2.2625,0,2.2636,0,2.2653,2.2674,2.2674,0,0,0,2.2488,2.2486,2.2514,2.2452,2.2485,2.2567,2.2531,2.2607,2.2615,2.2633,2.2637,2.2641,2.2655,2.2674,2.2675,2.2746,2.2747,0,0,2.2483,2.2463,2.2509,2.2519,2.2505,2.2528,2.2534,2.2612,2.2615,2.2638,2.2644,2.2657,2.2675,2.2676,2.2746,2.2746,0,0,0,2.2467,2.2459,2.2486,2.2514,2.253,2.2531,2.2537,2.2611,2.2622,2.2645,2.2658,2.2675,2.2676,2.2746,2.2746,2.2734,0,0,0,2.2465,2.245,2.2484,2.2472,2.2529,2.2572,2.2534,2.2616,2.2626,2.2657,2.2675,2.2677,2.2746,2.2746,2.2734,2.2731,0,0,0,2.2447,2.2448,2.2458,2.247,2.2506,2.2571,2.2586,2.2619,2.2634,2.2674,2.2678,2.2746,2.2746,2.2734,2.2731,2.2745,0,0,0,2.2423,2.2443,2.2457,2.2486,2.2505,2.2562,2.2586,2.2629,2.2662,2.2676,2.2746,2.2746,2.2734,2.2731,2.2745,2.2754,2.2755,0,0,2.2437,2.2444,2.2463,2.2478,2.2527,2.2551,2.2599,2.2649,2.2671,2.272,2.2722,2.2734,2.2731,2.2745,2.2769,2.277,0,0,0,2.246,2.2473,2.2491,2.2522,2.2562,2.2596,2.264,2.266,2.2703,2.2692,2.2743,2.2742,2.2751,2.2756,2.2757,2.2767,2.2748,2.2748,2.2748,2.245,2.2479,2.2513,2.2553,2.2583,2.2631,2.2658,2.2692,2.2711,2.2723,2.2738,2.2749,2.2754,2.2755,2.2765,2.2744,2.2744,2.2744,2.2744,2.2474,2.2498,2.2526,2.2568,2.26,2.2636,2.2684,2.2697,2.2736,2.2739,2.2749,2.275,2.2755,2.2766,2.2743,2.2743,2.2744,2.2744,2.2744,2.2471,2.2487,2.2511,2.2562,2.2598,2.2638,2.2676,2.2703,2.2728,2.2738,2.2758,2.2758,2.2763,2.2745,2.2746,2.2746,2.2746,2.2746,2.2746,2.2458,2.2485,2.2513,2.2559,2.2585,2.2622,2.2672,2.2698,2.2734,2.2751,2.2752,2.2771,2.275,2.2744,2.2746,2.2746,2.2746,2.2746,2.2746,2.2472,2.2474,2.2517,2.2543,2.2601,2.2637,2.2672,2.2723,2.2749,2.2767,2.2786,2.2765,2.2774,2.2773,2.2769,2.2778,2.2778,2.2778,2.2778,2.2469,2.2477,2.253,2.257,2.2612,2.2649,2.27,2.2741,2.2783,2.2801,2.2804,2.2801,2.2799,2.2809,2.2808,2.2805,2.2822,2.2822,2.2822,2.2481,2.2495,2.2531,2.2574,2.2622,2.2664,2.2713,2.2759,2.2807,2.2824,2.2817,2.2815,2.281,2.2806,2.2822,2.2819,2.2814,0,0]}]]